Location: Unspecified
(41.5000°N, 0.0000°E)
Time: 00:35:42
(UTC+00:00)

Courier 1B Rocket - Visible Passes

Search period start: 18 June 2019 00:00
Search period end: 28 June 2019 00:00
Orbit: 920 x 1202 km, 28.2° (Epoch: 16 June)

Date Brightness Start Highest point End Pass type
(mag) Time Alt. Az. Time Alt. Az. Time Alt. Az.
22 Jun 6.7 03:48:57 10° SSW 03:53:18 18° SSE 03:57:28 10° SE visible
23 Jun 6.9 02:49:54 12° S 02:52:31 14° SSE 02:55:58 10° SE visible
24 Jun 7.1 01:52:22 11° SSE 01:52:22 11° SSE 01:53:27 10° SE visible
24 Jun 6.5 03:39:06 10° SW 03:44:16 22° SSE 03:49:11 10° ESE visible
25 Jun 6.6 02:41:09 16° S 02:43:27 19° SSE 02:48:04 10° ESE visible
26 Jun 6.9 01:43:35 15° SSE 01:43:35 15° SSE 01:46:37 10° SE visible
26 Jun 6.3 03:29:56 11° SW 03:35:15 25° S 03:40:38 10° ESE visible
27 Jun 6.4 02:32:22 21° SSW 02:34:23 23° SSE 02:39:42 10° ESE visible
